Precipitable_Water
0.89 0.91 0.89 0.85 0.82 0.81 0.80 0.81 0.81 0.83 0.84 0.85 0.84 0.82 0.77 0.75 0.75 0.76 0.69 0.86 0.70 0.61 0.56 0.53 0.42 0.39 0.49 0.49 0.39 0.47 0.47 0.48 0.41 0.31 0.29 0.28 0.27 0.29 0.27 0.28 0.26 0.22 0.19 0.18 0.19 0.16 0.14 0.28 0.31 0.23 0.29 0.36 0.36 0.38
0.88 0.87 0.87 0.85 0.83 0.81 0.80 0.81 0.84 0.88 0.88 0.88 0.86 0.80 0.75 0.72 0.73 0.76 0.68 0.94 0.94 0.72 0.59 0.64 0.61 0.70 0.68 0.57 0.48 0.55 0.49 0.48 0.47 0.38 0.35 0.35 0.31 0.33 0.29 0.21 0.33 0.22 0.26 0.22 0.23 0.20 0.29 0.34 0.34 0.38 0.40 0.38 0.40 0.42
0.89 0.88 0.86 0.83 0.81 0.80 0.80 0.79 0.82 0.87 0.87 0.89 0.87 0.81 0.74 0.71 0.73 0.79 0.83 0.89 0.85 0.72 0.60 0.61 0.61 0.75 0.83 0.80 0.78 0.51 0.55 0.57 0.49 0.51 0.43 0.40 0.30 0.33 0.22 0.24 0.27 0.31 0.35 0.27 0.26 0.29 0.32 0.35 0.39 0.41 0.43 0.43 0.47 0.49
0.89 0.88 0.87 0.84 0.81 0.78 0.78 0.81 0.80 0.86 0.88 0.90 0.88 0.83 0.77 0.75 0.83 0.86 0.81 0.89 0.83 0.76 0.59 0.65 0.90 0.79 0.86 0.84 0.73 0.69 0.61 0.61 0.56 0.51 0.40 0.34 0.27 0.35 0.27 0.30 0.28 0.31 0.33 0.30 0.29 0.32 0.35 0.37 0.41 0.44 0.47 0.49 0.51 0.55
0.90 0.88 0.86 0.84 0.81 0.79 0.78 0.80 0.79 0.80 0.87 0.92 0.91 0.87 0.81 0.86 0.87 0.88 0.88 0.89 0.84 0.62 0.49 0.60 0.77 0.84 0.83 0.76 0.68 0.66 0.57 0.50 0.44 0.40 0.37 0.32 0.37 0.35 0.37 0.36 0.30 0.34 0.30 0.27 0.26 0.36 0.39 0.41 0.49 0.55 0.56 0.56 0.57 0.57
0.88 0.88 0.86 0.84 0.82 0.79 0.79 0.79 0.82 0.76 0.80 0.92 0.92 0.91 0.90 0.91 0.91 0.85 0.69 0.85 0.84 0.76 0.55 0.49 0.72 0.71 0.75 0.72 0.67 0.62 0.59 0.51 0.45 0.40 0.37 0.40 0.44 0.37 0.31 0.28 0.32 0.36 0.41 0.44 0.42 0.52 0.53 0.57 0.61 0.64 0.60 0.61 0.62 0.61
0.88 0.87 0.86 0.84 0.83 0.80 0.80 0.80 0.84 0.78 0.77 0.81 0.87 0.85 0.83 0.84 0.82 0.67 0.62 0.76 0.78 0.68 0.49 0.49 0.52 0.69 0.74 0.72 0.66 0.61 0.56 0.46 0.42 0.39 0.35 0.37 0.39 0.42 0.36 0.29 0.37 0.47 0.52 0.56 0.59 0.59 0.54 0.60 0.58 0.66 0.65 0.63 0.62 0.60
0.91 0.90 0.87 0.85 0.84 0.85 0.86 0.83 0.83 0.82 0.80 0.79 0.80 0.79 0.74 0.74 0.77 0.68 0.80 0.82 0.72 0.49 0.43 0.32 0.37 0.50 0.69 0.50 0.42 0.49 0.40 0.44 0.45 0.42 0.44 0.40 0.45 0.46 0.37 0.46 0.50 0.52 0.53 0.55 0.58 0.62 0.61 0.64 0.64 0.64 0.63 0.62 0.61 0.60
0.93 0.92 0.90 0.90 0.89 0.87 0.89 0.89 0.86 0.85 0.84 0.81 0.76 0.72 0.66 0.62 0.56 0.66 0.77 0.73 0.68 0.47 0.34 0.34 0.27 0.26 0.51 0.43 0.46 0.48 0.52 0.40 0.53 0.44 0.45 0.48 0.43 0.37 0.43 0.45 0.47 0.50 0.51 0.54 0.59 0.61 0.62 0.61 0.60 0.60 0.61 0.60 0.59 0.58
0.93 0.94 0.95 0.95 0.95 0.92 0.90 0.89 0.88 0.85 0.84 0.80 0.73 0.61 0.55 0.71 0.85 0.76 0.60 0.50 0.49 0.52 0.50 0.36 0.43 0.33 0.47 0.48 0.48 0.49 0.53 0.45 0.38 0.45 0.54 0.42 0.40 0.46 0.46 0.49 0.52 0.55 0.58 0.62 0.57 0.56 0.58 0.57 0.57 0.57 0.57 0.59 0.59 0.58
0.92 0.93 0.93 0.96 0.97 0.97 0.94 0.92 0.90 0.87 0.83 0.72 0.64 0.63 0.81 0.86 0.67 0.57 0.47 0.45 0.49 0.44 0.51 0.50 0.50 0.46 0.61 0.46 0.48 0.56 0.48 0.47 0.34 0.39 0.40 0.37 0.35 0.42 0.51 0.54 0.58 0.60 0.62 0.62 0.63 0.62 0.62 0.61 0.58 0.57 0.56 0.57 0.57 0.55
0.89 0.90 0.92 0.93 0.94 0.97 0.98 0.95 0.91 0.85 0.80 0.78 0.76 0.80 0.73 0.62 0.54 0.47 0.44 0.49 0.45 0.42 0.52 0.51 0.53 0.57 0.60 0.65 0.53 0.53 0.44 0.44 0.33 0.50 0.42 0.35 0.43 0.51 0.54 0.56 0.59 0.62 0.63 0.62 0.63 0.60 0.59 0.57 0.56 0.53 0.52 0.51 0.50 0.48
0.86 0.88 0.89 0.90 0.92 0.93 0.92 0.93 0.92 0.90 0.87 0.80 0.69 0.60 0.56 0.54 0.42 0.39 0.35 0.40 0.41 0.49 0.52 0.53 0.49 0.56 0.58 0.59 0.53 0.49 0.40 0.39 0.52 0.41 0.37 0.41 0.47 0.52 0.54 0.54 0.55 0.57 0.55 0.52 0.51 0.50 0.48 0.46 0.45 0.44 0.41 0.41 0.39 0.35
0.76 0.80 0.84 0.88 0.89 0.90 0.91 0.90 0.87 0.84 0.76 0.61 0.54 0.43 0.44 0.41 0.42 0.43 0.42 0.44 0.51 0.53 0.53 0.54 0.52 0.53 0.58 0.54 0.54 0.45 0.49 0.49 0.37 0.33 0.34 0.43 0.49 0.50 0.52 0.53 0.50 0.47 0.46 0.44 0.41 0.41 0.39 0.38 0.36 0.36 0.36 0.35 0.32 0.29
0.63 0.65 0.70 0.76 0.80 0.85 0.88 0.88 0.85 0.79 0.70 0.59 0.56 0.42 0.44 0.49 0.51 0.52 0.54 0.53 0.55 0.59 0.58 0.57 0.56 0.57 0.53 0.49 0.50 0.46 0.39 0.34 0.35 0.34 0.41 0.47 0.49 0.47 0.46 0.44 0.42 0.44 0.42 0.40 0.40 0.39 0.37 0.35 0.34 0.32 0.32 0.31 0.30 0.29
0.53 0.53 0.53 0.61 0.66 0.70 0.73 0.75 0.74 0.72 0.64 0.58 0.54 0.48 0.51 0.49 0.50 0.53 0.55 0.54 0.62 0.61 0.62 0.59 0.51 0.46 0.44 0.45 0.40 0.37 0.35 0.32 0.36 0.43 0.48 0.50 0.48 0.48 0.44 0.44 0.43 0.45 0.41 0.39 0.36 0.35 0.35 0.34 0.31 0.30 0.30 0.29 0.29 0.29
0.45 0.42 0.51 0.53 0.56 0.55 0.56 0.53 0.50 0.48 0.48 0.42 0.43 0.54 0.52 0.52 0.50 0.52 0.55 0.55 0.63 0.56 0.47 0.49 0.41 0.39 0.45 0.38 0.35 0.39 0.34 0.39 0.45 0.47 0.49 0.48 0.46 0.44 0.43 0.43 0.42 0.38 0.35 0.35 0.35 0.35 0.33 0.33 0.31 0.27 0.24 0.27 0.28 0.29
0.36 0.41 0.43 0.45 0.47 0.47 0.46 0.43 0.35 0.34 0.30 0.35 0.32 0.36 0.40 0.43 0.42 0.42 0.44 0.47 0.44 0.41 0.40 0.36 0.39 0.32 0.29 0.26 0.27 0.33 0.36 0.39 0.41 0.41 0.42 0.43 0.41 0.38 0.35 0.32 0.32 0.34 0.35 0.35 0.35 0.33 0.31 0.28 0.26 0.26 0.27 0.26 0.24 0.22
0.27 0.27 0.29 0.35 0.37 0.32 0.27 0.30 0.32 0.25 0.29 0.33 0.35 0.37 0.38 0.38 0.40 0.41 0.40 0.41 0.41 0.40 0.36 0.31 0.26 0.23 0.25 0.30 0.30 0.31 0.32 0.33 0.32 0.34 0.35 0.37 0.36 0.36 0.36 0.36 0.37 0.36 0.35 0.34 0.32 0.29 0.28 0.29 0.27 0.26 0.23 0.22 0.19 0.18
0.21 0.21 0.21 0.25 0.26 0.23 0.23 0.26 0.34 0.26 0.24 0.29 0.33 0.31 0.31 0.32 0.35 0.36 0.35 0.34 0.33 0.30 0.25 0.23 0.23 0.26 0.27 0.29 0.32 0.32 0.33 0.35 0.35 0.32 0.33 0.35 0.37 0.36 0.36 0.35 0.34 0.35 0.33 0.31 0.29 0.27 0.26 0.26 0.24 0.23 0.22 0.20 0.18 0.17
0.18 0.19 0.20 0.19 0.20 0.22 0.23 0.23 0.22 0.24 0.25 0.23 0.27 0.27 0.26 0.29 0.27 0.27 0.28 0.33 0.28 0.24 0.22 0.28 0.30 0.33 0.35 0.34 0.35 0.36 0.36 0.37 0.35 0.35 0.34 0.32 0.35 0.35 0.34 0.32 0.31 0.29 0.27 0.26 0.25 0.25 0.24 0.22 0.22 0.21 0.19 0.17 0.15 0.15
0.21 0.23 0.18 0.19 0.15 0.19 0.19 0.26 0.22 0.23 0.20 0.20 0.20 0.22 0.19 0.18 0.20 0.23 0.29 0.26 0.25 0.27 0.29 0.31 0.33 0.36 0.35 0.35 0.37 0.39 0.39 0.39 0.38 0.37 0.37 0.35 0.31 0.30 0.28 0.28 0.28 0.27 0.27 0.25 0.23 0.21 0.20 0.20 0.18 0.17 0.14 0.13 0.12 0.11
0.24 0.20 0.17 0.16 0.12 0.14 0.16 0.25 0.17 0.19 0.13 0.15 0.18 0.15 0.16 0.16 0.19 0.24 0.19 0.24 0.27 0.33 0.35 0.35 0.36 0.38 0.36 0.37 0.38 0.39 0.39 0.37 0.35 0.35 0.34 0.33 0.32 0.30 0.29 0.28 0.26 0.24 0.22 0.21 0.20 0.19 0.17 0.15 0.14 0.12 0.11 0.10 0.10 0.09
0.25 0.16 0.12 0.11 0.13 0.12 0.19 0.16 0.19 0.17 0.18 0.15 0.14 0.14 0.17 0.20 0.24 0.20 0.18 0.22 0.27 0.32 0.33 0.33 0.34 0.33 0.34 0.34 0.34 0.34 0.35 0.35 0.33 0.33 0.32 0.30 0.28 0.27 0.26 0.25 0.23 0.21 0.19 0.18 0.16 0.14 0.13 0.12 0.11 0.10 0.09 0.09 0.09 0.10
0.11 0.13 0.14 0.12 0.18 0.16 0.15 0.16 0.18 0.18 0.15 0.18 0.17 0.17 0.21 0.25 0.19 0.18 0.17 0.20 0.25 0.28 0.31 0.34 0.33 0.33 0.31 0.31 0.32 0.32 0.34 0.33 0.31 0.28 0.28 0.28 0.26 0.24 0.22 0.21 0.19 0.18 0.17 0.14 0.13 0.12 0.10 0.09 0.09 0.09 0.09 0.09 0.09 0.09
0.10 0.17 0.16 0.17 0.18 0.17 0.18 0.16 0.17 0.18 0.18 0.18 0.20 0.23 0.24 0.21 0.18 0.18 0.20 0.23 0.25 0.27 0.30 0.30 0.30 0.30 0.29 0.30 0.29 0.29 0.29 0.31 0.28 0.25 0.24 0.24 0.22 0.20 0.18 0.16 0.15 0.14 0.14 0.12 0.10 0.08 0.08 0.08 0.09 0.09 0.09 0.09 0.10 0.09
0.14 0.17 0.22 0.27 0.24 0.22 0.20 0.23 0.23 0.21 0.19 0.19 0.21 0.22 0.21 0.17 0.16 0.21 0.26 0.28 0.27 0.29 0.31 0.32 0.31 0.29 0.28 0.28 0.29 0.28 0.28 0.28 0.26 0.25 0.24 0.22 0.20 0.18 0.16 0.13 0.11 0.10 0.11 0.10 0.09 0.08 0.08 0.09 0.09 0.09 0.09 0.10 0.10 0.10
0.23 0.23 0.19 0.22 0.22 0.25 0.21 0.21 0.21 0.20 0.22 0.26 0.24 0.20 0.19 0.19 0.20 0.24 0.26 0.28 0.29 0.30 0.30 0.30 0.30 0.29 0.28 0.28 0.28 0.27 0.26 0.25 0.24 0.21 0.18 0.16 0.15 0.14 0.13 0.12 0.11 0.10 0.09 0.09 0.09 0.09 0.09 0.09 0.09 0.09 0.09 0.09 0.09 0.10
0.24 0.27 0.26 0.22 0.23 0.24 0.24 0.23 0.23 0.26 0.29 0.27 0.22 0.21 0.22 0.24 0.25 0.25 0.26 0.28 0.29 0.28 0.26 0.26 0.26 0.26 0.26 0.25 0.23 0.21 0.19 0.16 0.13 0.11 0.10 0.10 0.10 0.11 0.11 0.10 0.09 0.09 0.09 0.09 0.09 0.09 0.09 0.10 0.10 0.10 0.09 0.09 0.09 0.09
0.22 0.25 0.22 0.21 0.20 0.19 0.23 0.26 0.24 0.28 0.28 0.27 0.26 0.24 0.23 0.23 0.24 0.26 0.25 0.25 0.24 0.23 0.22 0.22 0.21 0.21 0.19 0.17 0.15 0.14 0.13 0.13 0.12 0.11 0.10 0.10 0.10 0.10 0.09 0.08 0.08 0.08 0.08 0.08 0.08 0.09 0.10 0.10 0.10 0.09 0.09 0.08 0.08 0.08
0.26 0.23 0.19 0.17 0.16 0.19 0.22 0.25 0.27 0.27 0.25 0.23 0.23 0.21 0.19 0.20 0.20 0.20 0.20 0.20 0.20 0.19 0.18 0.17 0.17 0.16 0.15 0.13 0.12 0.11 0.11 0.13 0.13 0.12 0.12 0.10 0.09 0.08 0.08 0.08 0.08 0.08 0.09 0.09 0.09 0.09 0.09 0.09 0.08 0.08 0.07 0.07 0.07 0.08
0.18 0.16 0.15 0.13 0.15 0.19 0.21 0.19 0.19 0.19 0.19 0.17 0.16 0.17 0.15 0.15 0.14 0.15 0.17 0.17 0.17 0.16 0.16 0.15 0.14 0.14 0.14 0.14 0.13 0.13 0.13 0.12 0.11 0.10 0.09 0.08 0.08 0.08 0.09 0.10 0.10 0.10 0.09 0.09 0.09 0.08 0.08 0.08 0.07 0.07 0.07 0.07 0.07 0.07
0.16 0.16 0.15 0.14 0.14 0.14 0.16 0.14 0.12 0.12 0.13 0.13 0.13 0.14 0.14 0.14 0.12 0.15 0.17 0.18 0.16 0.16 0.15 0.14 0.14 0.14 0.14 0.13 0.12 0.11 0.10 0.09 0.09 0.09 0.09 0.09 0.10 0.10 0.10 0.10 0.10 0.09 0.09 0.09 0.08 0.08 0.07 0.07 0.07 0.07 0.07 0.07 0.07 0.07
Wind_Speed
54 51 52 50 47 44 41 39 36 34 32 32 33 35 38 41 41 34 31 28 25 23 24 25 26 25 22 21 19 18 14 13 11 9 9 10 9 10 9 10 11 11 11 13 12 15 19 16 16 17 20 23 25 25
52 51 48 44 42 40 38 35 32 30 29 29 30 33 36 38 40 34 29 26 23 22 23 24 24 22 22 22 20 19 16 14 14 11 12 11 12 12 12 13 13 14 15 15 16 17 19 21 23 24 25 26 26 27
48 46 43 42 38 36 34 31 29 28 27 26 27 31 34 36 37 33 29 25 21 21 21 22 21 20 19 19 19 17 17 15 15 14 13 14 14 14 14 17 16 17 18 19 19 20 23 26 27 28 28 29 29 29
43 41 39 37 35 33 31 29 27 26 25 24 26 29 32 34 34 31 27 26 20 20 20 21 20 19 18 18 18 16 16 15 14 15 15 16 16 18 17 18 18 18 18 20 23 25 26 25 25 26 27 27 27 27
37 36 35 34 32 29 29 27 26 25 24 24 24 28 30 31 31 26 24 23 23 19 20 21 19 16 16 16 15 14 14 15 16 16 16 18 17 18 19 20 21 20 21 21 23 24 23 25 25 25 26 26 28 28
34 33 32 30 28 27 26 25 24 23 23 23 23 26 27 29 28 25 20 20 20 20 17 19 18 17 16 15 14 14 15 15 16 17 18 18 19 19 19 20 21 19 22 23 25 24 25 26 27 27 28 29 29 29
30 29 27 26 25 25 24 23 24 22 22 22 22 22 23 25 23 21 20 20 18 18 16 16 16 17 17 16 16 16 16 16 17 17 17 18 18 19 20 21 21 21 24 25 25 26 27 26 27 28 28 28 26 24
25 24 23 23 23 23 23 22 22 22 22 22 21 21 20 21 20 17 16 17 17 17 15 15 16 16 17 16 16 16 16 17 17 18 18 19 20 20 22 22 23 23 24 22 24 26 26 26 27 27 26 24 22 22
22 21 21 22 22 21 22 21 21 20 20 19 19 18 16 15 15 16 15 15 14 16 15 15 15 16 15 15 15 15 17 17 20 20 20 20 21 22 22 24 25 25 25 27 25 24 24 24 24 24 23 23 22 22
19 19 20 19 20 20 19 20 19 18 17 17 16 14 13 13 14 14 13 13 13 14 14 14 14 14 14 15 15 16 18 19 20 21 20 21 21 21 22 23 24 24 24 23 23 23 22 22 23 23 22 22 23 23
17 18 17 17 18 23 18 18 18 17 16 16 14 13 14 13 13 12 12 12 13 13 14 15 16 15 16 17 18 19 19 19 20 21 21 21 21 20 19 19 19 19 19 19 19 20 21 21 21 21 22 22 23 24
15 15 14 14 18 17 23 17 17 17 16 16 15 14 13 12 12 12 14 14 13 15 15 15 16 16 17 18 18 19 19 19 20 18 18 19 19 18 18 18 18 18 18 18 18 18 19 19 20 21 23 24 26 26
13 12 12 14 17 17 16 18 18 18 16 16 14 14 13 14 12 15 16 15 15 16 15 15 15 16 16 17 16 16 17 19 18 18 18 18 16 17 16 17 18 18 19 18 19 20 21 22 24 25 26 27 28 29
11 11 10 12 14 15 15 16 16 17 15 14 14 14 14 14 15 16 16 15 15 15 15 14 14 14 15 15 16 16 17 16 17 17 17 17 17 17 17 18 19 20 21 21 22 23 24 25 26 26 27 28 28 28
9 8 8 8 9 12 15 15 15 15 14 14 14 14 15 16 15 13 13 13 13 14 14 14 15 15 14 13 14 14 14 15 16 16 17 17 18 19 20 21 21 22 23 24 25 26 26 27 27 27 28 28 28 28
8 7 5 5 8 9 11 11 12 12 12 12 11 12 13 12 13 13 13 13 14 14 13 13 13 13 14 14 14 15 15 18 18 19 17 18 19 20 21 22 23 25 25 26 26 26 27 27 27 27 27 28 28 29
7 6 3 4 7 8 9 10 10 9 10 10 10 11 11 11 11 12 12 12 13 13 14 13 13 14 15 16 17 18 19 19 18 18 18 19 21 23 24 25 25 24 25 25 26 26 27 27 26 27 27 29 30 32
5 4 3 5 8 8 8 8 9 9 9 9 10 10 10 10 10 10 11 12 13 14 15 15 16 16 17 17 19 19 19 19 19 19 19 20 21 21 21 21 22 23 23 24 24 25 26 27 27 28 30 32 34 35
3 1 2 3 6 8 8 7 8 8 9 9 10 11 11 12 12 13 13 13 13 14 15 16 16 17 18 18 18 17 18 18 18 18 19 20 20 20 21 21 22 23 24 25 26 26 27 27 28 30 33 35 36 38
1 0 1 2 5 7 7 7 7 8 9 10 10 10 11 12 13 14 14 15 15 16 16 16 18 18 18 19 19 19 19 19 19 20 20 21 21 21 22 23 24 24 25 25 25 27 27 28 30 32 35 37 38 39
2 3 4 4 5 5 7 8 8 9 10 10 12 12 14 15 16 17 18 18 18 18 18 19 19 19 19 18 18 18 18 19 20 21 22 22 23 23 24 24 24 24 24 25 26 27 29 30 33 35 37 39 41 43
6 6 6 6 6 7 8 9 10 11 11 12 13 14 15 16 17 18 19 20 20 20 20 20 21 21 20 20 20 20 20 20 21 21 21 22 23 23 23 23 24 24 25 26 27 29 31 33 36 38 40 42 44 46
9 8 8 8 8 9 10 10 11 12 12 14 15 16 17 18 19 20 20 21 21 22 22 22 22 21 21 21 21 20 21 21 21 20 21 21 21 22 22 23 23 24 25 27 29 32 34 36 38 40 42 43 44 45
10 9 9 9 8 9 11 11 12 13 14 15 16 17 18 19 20 20 21 22 22 23 24 23 23 22 20 20 21 20 20 19 19 21 22 21 21 21 22 23 24 25 27 30 32 34 36 39 41 41 42 43 43 42
9 10 8 9 10 9 10 11 12 13 14 15 16 17 17 18 18 19 21 21 22 22 21 20 20 19 18 18 18 18 19 20 20 19 20 20 20 21 23 24 26 29 31 33 35 38 39 40 41 41 41 41 40 40
8 9 8 9 9 10 11 12 13 14 14 15 15 15 16 16 16 17 18 19 18 18 17 16 16 15 15 16 17 18 18 18 18 18 19 20 22 23 26 28 30 32 35 36 38 39 40 40 40 40 39 38 37 36
7 8 9 10 10 11 11 12 12 12 12 12 13 13 12 12 12 12 13 13 12 11 10 10 11 12 13 13 14 15 16 18 19 20 21 23 25 27 29 31 33 35 37 38 39 39 39 39 38 37 36 35 34 33
6 7 8 10 9 9 9 9 8 8 8 9 9 8 8 8 8 8 8 8 6 7 7 8 9 11 13 15 16 17 18 19 21 22 24 26 28 30 32 34 36 37 38 38 38 38 37 35 34 33 32 31 31 30
4 6 6 6 7 6 6 6 7 7 8 8 8 8 8 9 10 10 10 10 10 10 11 12 14 14 15 17 19 20 22 24 25 26 28 30 31 33 35 36 37 37 36 36 35 34 33 31 30 30 30 29 28 28
5 5 5 6 6 7 7 8 10 11 11 10 10 10 11 12 13 13 13 13 14 15 15 16 18 19 20 21 22 23 24 25 27 28 30 32 34 35 35 35 34 34 33 32 32 31 30 28 28 28 28 27 27 27
8 9 10 10 11 12 13 15 15 14 14 15 15 15 16 16 15 15 15 16 16 17 18 19 20 20 21 22 23 25 26 28 29 31 32 33 33 33 33 33 32 32 31 30 29 28 28 27 27 27 26 26 26 26
12 12 13 14 15 16 17 16 17 17 18 17 18 18 17 16 16 17 17 16 17 17 18 19 20 22 23 24 25 27 28 30 31 32 32 32 32 31 31 31 30 30 29 28 27 27 26 26 26 26 26 26 25 25
14 14 15 15 15 15 16 16 17 17 16 16 16 15 15 14 14 16 16 17 17 19 20 22 23 24 25 26 28 29 30 31 32 32 31 30 30 30 30 29 29 28 27 27 26 26 26 25 25 25 25 24 24 24
Wind_Direction
137 141 142 146 148 149 152 155 159 162 167 172 176 180 182 183 185 187 186 189 193 196 198 199 197 199 203 208 211 214 218 235 240 250 253 256 260 259 268 266 263 263 265 272 279 283 287 284 287 284 289 292 292 290
136 138 141 143 145 146 148 151 154 158 162 167 172 176 179 181 183 185 186 188 191 193 196 195 195 201 210 212 214 218 226 232 238 250 257 260 263 269 271 272 274 274 270 278 271 281 285 285 288 290 291 291 292 292
135 136 138 141 142 145 147 148 150 153 158 163 168 173 176 178 180 184 184 187 187 187 188 192 199 201 204 210 216 222 232 236 245 253 254 262 267 268 270 272 276 277 276 280 285 286 284 286 290 290 290 288 291 290
133 135 138 140 141 142 144 146 146 149 152 156 162 167 169 173 176 181 185 185 185 187 193 200 202 205 215 217 221 227 228 239 245 255 260 264 268 268 273 277 277 281 280 282 285 288 290 290 290 292 293 293 293 293
134 136 138 139 140 141 143 144 146 147 147 149 153 161 165 171 175 177 183 190 195 196 198 199 202 207 211 212 215 225 230 242 251 259 265 266 270 274 278 279 280 279 280 282 285 288 289 292 294 295 295 295 295 294
136 137 138 140 141 142 143 146 148 147 147 148 149 156 161 166 173 180 183 189 192 195 195 200 207 211 215 218 224 236 246 252 258 262 266 269 274 274 275 278 284 281 281 284 288 292 290 292 294 296 296 298 298 296
137 139 140 142 144 145 145 144 147 148 149 150 151 155 162 169 174 182 189 191 193 196 202 205 214 219 223 229 237 247 254 258 261 264 269 271 273 272 277 279 290 293 289 288 288 290 291 293 295 299 299 300 301 301
144 145 147 147 147 150 151 149 149 148 147 148 152 154 155 162 171 181 185 193 199 202 209 212 222 222 231 237 242 251 254 260 266 266 270 272 274 276 277 284 292 293 295 290 295 292 293 295 299 300 300 300 302 301
150 149 152 156 152 151 156 159 157 157 157 158 158 161 167 174 183 187 192 197 200 209 214 221 218 227 232 237 245 253 260 264 268 268 271 273 275 275 284 289 292 293 290 290 294 296 297 298 300 302 301 301 301 299
155 158 161 165 169 165 165 166 169 169 169 170 172 177 180 183 185 193 202 207 214 222 223 223 225 229 237 244 254 260 266 266 268 270 273 273 276 278 288 290 292 295 297 294 290 294 297 299 301 302 302 301 301 298
163 165 167 173 174 180 175 176 180 183 183 187 189 191 189 196 201 208 211 215 224 227 231 231 235 241 251 254 257 263 265 270 270 272 271 275 277 284 287 292 296 298 301 303 301 300 300 299 300 301 301 300 299 297
157 168 175 180 181 181 191 187 189 191 193 193 191 193 203 214 219 221 226 229 233 235 241 244 250 253 256 257 259 263 265 268 270 275 274 275 280 278 287 292 295 299 301 302 303 303 303 301 300 300 300 299 299 300
144 149 165 176 181 183 183 193 195 194 199 205 212 216 222 229 227 227 227 236 243 249 251 252 253 255 257 259 262 263 262 266 272 271 275 281 276 282 285 290 295 296 300 303 303 303 303 302 303 302 302 302 302 302
133 141 152 166 177 182 188 193 198 203 205 214 222 224 231 233 237 242 247 249 250 249 249 249 251 254 258 260 261 263 266 267 268 269 275 276 276 280 281 286 291 294 299 301 303 304 305 305 305 305 305 305 304 305
138 140 150 157 174 188 197 204 205 208 216 224 230 233 237 237 241 243 245 245 248 244 248 252 257 257 258 258 262 260 266 268 273 275 281 277 278 283 284 286 291 293 295 299 300 302 303 304 304 305 306 307 307 307
162 158 146 168 180 182 185 190 199 206 217 224 231 232 234 234 239 243 246 247 249 249 252 254 254 256 257 258 261 262 266 272 277 279 275 277 280 282 284 286 289 293 294 296 299 300 301 303 304 305 306 308 308 307
164 178 197 190 185 185 191 196 204 212 217 226 231 231 236 236 239 242 246 249 250 250 254 257 257 258 264 268 268 270 272 273 274 275 276 277 280 284 285 289 290 292 295 298 299 301 302 302 303 306 307 308 309 309
170 200 213 209 201 198 203 214 217 224 226 229 230 236 238 238 239 245 251 256 257 258 258 260 261 264 266 267 272 273 273 275 277 277 279 285 287 288 289 290 293 295 298 300 301 302 304 304 305 305 306 308 308 309
141 140 202 211 202 205 216 227 229 226 230 232 234 239 240 243 248 252 256 261 263 263 261 266 268 268 269 270 272 269 272 274 276 278 282 287 289 289 291 293 295 297 299 301 302 302 303 304 305 306 307 308 308 309
184 229 262 231 217 218 223 233 235 232 236 240 241 245 246 250 255 259 263 266 266 267 269 269 269 271 273 274 273 273 272 274 277 281 283 287 289 291 295 295 296 297 298 300 302 304 304 304 306 308 309 310 310 310
266 280 281 251 241 236 234 246 247 247 247 250 256 257 259 262 264 266 266 268 269 269 270 271 272 272 272 273 274 274 275 277 280 281 282 285 289 292 294 295 296 298 298 300 301 303 305 306 307 309 310 311 311 311
282 285 268 272 257 254 251 262 254 257 258 259 264 266 266 267 269 269 269 266 268 269 270 271 272 270 270 272 275 277 279 281 283 285 287 287 289 291 294 296 296 298 300 302 303 304 306 307 309 310 311 312 312 313
288 282 275 279 266 267 264 269 267 271 268 272 274 274 273 273 272 274 271 270 270 271 271 272 274 271 270 273 273 277 283 283 281 284 288 289 291 292 293 296 298 299 301 303 305 307 308 309 310 311 312 313 314 315
291 281 279 274 275 270 276 278 275 276 277 278 279 281 279 278 279 276 274 275 276 276 274 270 267 267 269 270 274 279 279 279 281 288 290 288 290 292 294 295 298 301 304 305 307 308 309 310 311 312 313 314 315 316
282 285 276 281 281 281 281 284 284 284 284 282 283 284 284 283 282 282 280 280 279 278 277 270 267 266 264 267 272 276 281 282 283 286 290 291 292 293 296 299 300 303 305 306 308 309 310 311 312 313 314 315 316 317
282 284 279 280 285 285 283 284 283 286 286 287 283 288 290 289 287 287 287 288 282 278 276 270 262 260 266 271 274 279 283 285 285 288 291 293 296 297 299 301 303 303 306 307 308 309 310 311 312 313 314 315 316 318
279 281 285 287 287 288 289 289 291 288 286 287 291 294 295 293 292 295 296 297 285 282 276 271 269 268 268 271 280 285 287 289 290 290 292 295 298 300 302 303 304 305 307 308 308 309 310 311 311 312 314 315 317 319
287 290 289 290 293 291 289 293 295 296 296 298 298 297 294 296 298 306 309 311 298 282 281 285 286 285 283 283 286 288 291 292 294 295 296 297 299 301 304 305 306 306 307 308 308 309 310 310 311 313 314 316 318 319
303 305 308 305 302 303 300 295 295 296 301 298 294 295 295 297 298 297 297 294 290 288 288 288 290 289 290 291 293 293 293 294 295 297 298 299 301 302 305 306 307 308 309 309 310 311 311 311 312 314 315 316 318 320
308 313 311 307 303 298 295 295 296 293 296 293 290 290 292 292 296 293 290 289 289 289 289 290 291 291 292 293 294 295 296 297 299 299 300 301 302 304 306 307 308 309 310 310 311 312 312 313 314 315 317 317 318 320
302 303 300 297 294 294 294 293 292 288 287 287 287 287 287 286 288 291 290 289 289 290 292 293 295 295 296 297 297 298 298 299 301 302 303 304 304 305 306 307 308 309 310 310 311 312 312 313 314 315 317 317 319 320
304 302 299 298 296 295 298 294 292 289 287 285 285 284 284 285 286 287 290 290 292 294 295 297 298 298 299 300 301 301 301 302 303 304 304 304 305 305 306 307 309 310 310 310 311 311 312 312 313 315 316 317 318 319
301 300 299 299 300 300 300 300 299 296 294 291 288 283 281 281 282 287 291 293 295 297 298 299 300 300 301 302 303 303 303 304 305 305 304 304 305 306 307 307 308 309 309 310 311 311 311 311 312 314 316 317 318 319